www.dundeebuses.info - /dundeebusesdotcom/2017_new_files/


[To Parent Directory]

7/5/2017 12:21 PM <dir> 000 Fares
6/16/2017 6:55 AM 10342 000 index to services as at Monday 12th June 2017.htm
6/16/2017 6:55 AM 412235 000 index to services as at Monday 12th June 2017.pdf
6/16/2017 6:54 AM <dir> 000 index to services as at Monday 12th June 2017_files
7/5/2017 12:02 PM 10318 000 index to services as at Monday 3rd July 2017.htm
7/5/2017 12:01 PM 404377 000 index to services as at Monday 3rd July 2017.pdf
7/5/2017 12:02 PM <dir> 000 index to services as at Monday 3rd July 2017_files
6/15/2017 7:35 AM <dir> 000 Maps
6/15/2017 9:13 AM <dir> 000 rail
7/5/2017 11:19 AM <dir> 000 Rest
1/1/2017 6:03 PM 497184 001A 001B Xplore Dundee 3rd January 2017 colour.pdf
1/1/2017 6:03 PM 557158 001C 001 002 Stagecoach 30th March 2015.pdf
1/1/2017 6:03 PM 158609 003 Stagecoach 3rd January 2017.pdf
1/1/2017 6:03 PM 370745 004 005 006 Stagecoach 30th May 2016.pdf
1/1/2017 6:03 PM 683525 005 009 009A 009C 010 010A Xplore Dundee 3rd January 2017.pdf
1/1/2017 6:04 PM 2172679 007 807 Stagecoach 30th May 2016.pdf
1/1/2017 6:04 PM 1131620 008 009 010 Stagecoach 11th January 2016.pdf
1/1/2017 6:04 PM 377028 009 Nicoll 18th April 2016.pdf
1/1/2017 6:05 PM 2477872 009S 014S 017S 023S 027S 028S 029S XploreDundee 14th August 2016.pdf
1/1/2017 6:04 PM 539185 010 010A Stagecoach 30th May 2016.pdf
1/1/2017 6:04 PM 473552 011 Stagecoach 3rd January 2017.pdf
1/1/2017 6:05 PM 741663 012 013 Stagecoach 3rd January 2017.pdf
6/15/2017 4:52 AM 1659122 014 014A 014B TEMPORARY TIMETABLE 30th March 2017 Stagecoach.pdf
1/1/2017 6:05 PM 1001008 014 Stagecoach 30th March 2015.pdf
1/1/2017 6:05 PM 1006607 014 XploreDundee 14thAugust2016.pdf
6/15/2017 4:52 AM 2316454 015 015A TEMPORARY TIMETABLE 30th March 2017 Stagecoach.pdf
1/1/2017 6:09 PM 10893209 015 017 XploreDundee 14thAugust2016.pdf
1/1/2017 6:06 PM 1533890 015 Stagecoach 30th March 2015 revised.pdf
1/1/2017 6:06 PM 1711506 016 016A 016B Stagecoach 3rd January 2017.pdf
1/1/2017 6:07 PM 736621 017 Stagecoach 15th August 2016.pdf
1/1/2017 6:07 PM 918588 018 Dochertys 26th January 2015.pdf
1/1/2017 6:09 PM 4346442 018 XploreDundee 14thAugust2016.pdf
1/1/2017 6:09 PM 2142809 019 019A 020 020A Dochertys Stagecoach 18th August 2014.pdf
6/15/2017 4:52 AM 2253572 019 019A 020 020A Dochertys Stagecoach 24th April 2017.pdf
2/21/2017 6:56 AM 132556 020 020A 020C 021 021A 021B 022 022D Stagecoach 20th February 2017.pdf
1/1/2017 6:12 PM 6606919 022 022A 022B XploreDundee 14thAugust2016.pdf
1/1/2017 6:12 PM 2721437 023 023A 023B Xplore Dundee 14th August 2016.pdf
2/21/2017 6:56 AM 206848 023 023A 024 024A 025 025A Stagecoach Forfar 20th February 2017.pdf
1/1/2017 6:12 PM 1946225 023 Aberfeldy Stagecoach 15th August 2016.pdf
1/1/2017 6:13 PM 1341278 023 Kinross Stagecoach 15th August 2016.pdf
1/1/2017 6:13 PM 1564076 024 Pitlochry Stagecoach complete 6th July 2015.pdf
2/21/2017 6:56 AM 129331 025A Orchardbank Summary 20th January 2017.pdf
2/21/2017 6:56 AM 85678 025B Lunanhead Summary 20th February 2017.pdf
2/21/2017 6:56 AM 87735 025C Lilybank and Graham Crescent Summary 20th February 2017.pdf
2/21/2017 6:56 AM 136325 025D Forfar Community Campus Sumamry 20th February 2017.pdf
1/1/2017 6:13 PM 1075931 026 026A M W Nicoll 24th October 2016.pdf
2/21/2017 6:56 AM 76419 027 027A 027B 027C Stagecoach Forfar Arbroath 20th February 2017.pdf
1/1/2017 6:16 PM 6999702 027 XploreDundee 14thAugust2016.pdf
1/1/2017 6:17 PM 12077434 028 029 XploreDundee 14thAugust2016.pdf
1/1/2017 6:16 PM 47305 029A M W Nicoll 17th August 2015 a.pdf
6/15/2017 4:52 AM 401478 030 a 030 030A 030B various 29th May 2017.pdf
1/1/2017 6:16 PM 408798 030 a Stagecoach Nicoll TeeJay Wishart 29th August 2016.pdf
6/15/2017 4:52 AM 196144 030 b Summary Mo-Arb 29th May 2017.pdf
1/1/2017 6:16 PM 212197 030 b SUMMARY Montrose Arbroath Stagecoach TeeJay 29th August 2016.pdf
1/1/2017 6:17 PM 95639 030 Xplore 031 051 Dundee 14th August 2016.pdf
1/1/2017 6:17 PM 1010635 030 Xplore 031 051 E Birkhill summary 14th August 2016.pdf
1/1/2017 6:17 PM 738472 032 032A 033 036 036C Xplore Dundee 3rd January 2017.pdf
1/1/2017 6:17 PM 284754 032 033 Stagecoach 29th August 2016.pdf
1/1/2017 6:17 PM 99585 034 Brechin Stagecoach A October 2016 a.pdf
1/1/2017 6:17 PM 117176 034 Brechin StagecoachB SUMMARY BCC October 2016.pdf
1/1/2017 6:18 PM 1593593 034 Spittalfield Stagecoach 6th July 2015.pdf
1/1/2017 6:17 PM 92627 035 130 140 141 Wisharts Auchmithie Summary.pdf
1/1/2017 6:17 PM 73401 036 J P Coaches May 2015.pdf
1/1/2017 6:18 PM 1710471 036 Stagecoach 26th September 2015.pdf
1/1/2017 6:18 PM 796271 037 042 046 J P Coaches October 2016.pdf
1/1/2017 6:19 PM 1624484 039 Stagecoach 31st October 2016.pdf
1/1/2017 6:19 PM 822127 039A SUMMARY Arbroath Dundee 31st October 2016.pdf
1/1/2017 6:19 PM 1646188 042 042B Stagecoach 14th August 2016.pdf
1/1/2017 6:19 PM 126484 043 043A inc Kirkton summary JP Stagecoach October 2016.pdf
1/1/2017 6:19 PM 255836 044 A 44 and 44A time JP Stagecoach October 2016.pdf
1/1/2017 6:19 PM 72566 044 B Westway Summary JP Stagecoach October 2016.pdf
1/1/2017 6:19 PM 92639 044 C Charles Avenue Summary JP Stagecoach October 2016.pdf
1/1/2017 6:19 PM 113319 044 D Cliffburn Summary JP Stagecoach October 2016.pdf
1/1/2017 6:19 PM 164023 044 E Warddykes Summary JP Stagecoach October 2016.pdf
1/1/2017 6:19 PM 446791 045 Crieff 26th January 2015.pdf
1/1/2017 6:19 PM 125175 046 Burnbrae 26th January 2015.pdf
1/1/2017 6:19 PM 369425 047 047B Nicolls Stagecoach 18th April 2016.pdf
1/1/2017 6:19 PM 950032 047 047B Stagecoach Sweenys March 2015 August 2015.pdf
1/1/2017 6:19 PM 16690 047A Nicolls 27th May 2013.pdf
1/1/2017 6:19 PM 66236 049 050 JP October 2016.pdf
1/1/2017 6:20 PM 465752 051A 051B Stagecoach 15th August 2016.pdf
1/1/2017 6:20 PM 1013439 052 Stagecoach 18th April 2016.pdf
1/1/2017 6:20 PM 1080335 053 Xplore Dundee September 2016 only.pdf
6/15/2017 4:53 AM 4365272 054 Easter Eggspress Xplore Dundee Easter Sunday 2017.pdf
6/15/2017 4:52 AM 28035 055 CARNIVALEXPRESS 2017.pdf
6/15/2017 4:52 AM 40789 056 056A CARNIVAL Xplore Dundee August 2017.pdf
1/1/2017 6:20 PM 1650034 056 056A Stagecoach 3rd January 2017.pdf
1/1/2017 6:21 PM 3235765 057 057A 057B Stagecoach 4th May 2015.pdf
6/15/2017 4:52 AM 294989 057 WEEKDAY TEMPORARY TIMETABLE 13th March 2017 for up to six weeks ROADWORKS QUARRY BENDS.pdf
1/1/2017 6:21 PM 627908 058 058A 058B Stagecoach 13th August 2012.pdf
6/15/2017 4:53 AM 1038464 058 Stagecoach 3rd July 2017.pdf
1/1/2017 6:21 PM 399566 059 Stagecoach 15th August 2016.pdf
6/15/2017 4:53 AM 248672 060 Stagecoach 15th August 2016(1).pdf
1/1/2017 6:21 PM 248624 060 Stagecoach 15th August 2016.pdf
1/1/2017 6:21 PM 732314 063 Stagecoach 16th February 2015.pdf
6/15/2017 4:53 AM 426642 063 Stagecoach 3rd July 2017.pdf
1/1/2017 6:21 PM 581940 066A Stagecoach 15th February 2016.pdf
1/1/2017 6:21 PM 313658 070 071 809 Stagecoach 3rd January 2017.pdf
1/1/2017 6:21 PM 493159 071 874 Stagecoach From 15th August 2016.pdf
7/5/2017 11:17 AM 329667 071 Stagecoach 15th August 2016.pdf
1/1/2017 6:22 PM 4113023 073 073A 073B Stagecoach 4th July 2016.pdf
1/1/2017 6:21 PM 255942 075 Stagecoach 3rd January 2017.pdf
1/1/2017 6:22 PM 2280810 077 077B Stagecoach 31st October 2016.pdf
1/1/2017 6:22 PM 67870 078A 078C 079A 079C TeeJay Travel May 2015.pdf
7/5/2017 11:17 AM 577293 080s 21st 24th July 2017.pdf
1/1/2017 6:22 PM 47219 081 JP May 2015.pdf
6/15/2017 4:53 AM 945936 081 Wishart 28th May 2017.pdf
7/5/2017 11:17 AM 293453 082 Elizabeth Yule Summer and Winter 3rd April 2017.pdf
1/1/2017 6:23 PM 288409 082 S.pdf
1/1/2017 6:22 PM 20213 082 W.pdf
1/1/2017 6:23 PM 974910 083 087 Stagecoach Yules November 2014.pdf
1/1/2017 6:23 PM 434175 088 Moffat and Williamson 14th August 2016 a.pdf
1/1/2017 6:23 PM 364845 091 Caber Coaches 13th August 2012.pdf
2/21/2017 6:56 AM 123914 092 092A 092B 092C 092D Moffat and Williamson 30th January 2017.pdf
1/1/2017 6:23 PM 726827 094 094A Stagecoach 4th May 2016.pdf
1/1/2017 6:25 PM 5527309 099 099A 099B 099C 099D N099 Stagecoach 4th May 2015.pdf
7/5/2017 11:17 AM 822691 107 Stagecoach Bluebird 2pp 17th Auguatr 2015 Mono.pdf
1/1/2017 6:24 PM 1266480 107 Stagecoach 16th August 2015.pdf
1/1/2017 6:24 PM 130642 115 116 Stagecoach Wishart 1st June 2015.pdf
1/1/2017 6:24 PM 73013 117 JP Coaches 1st June 2015.pdf
1/1/2017 6:24 PM 77986 118 119 JP Coaches May 2013.pdf
1/1/2017 6:24 PM 125554 120 121 A Helping Hand plus K Summary 2nd June 2014.pdf
1/1/2017 6:24 PM 81235 122 Shorts 2nd June 2014.pdf
1/1/2017 6:24 PM 154204 124 a 125 JP Coaches reprinted May 2015.pdf
1/1/2017 6:24 PM 78798 124 b 125 Kirriemuir Glamis Charleston Summary May 2015.pdf
1/1/2017 6:24 PM 147338 128 Smith and Sons May 2015.pdf
1/1/2017 6:24 PM 74551 129 Smith and Sons May 2015.pdf
1/1/2017 6:24 PM 217599 130 A011 Stagecoach Strathtay 17th October 2016.pdf
1/1/2017 6:25 PM 1979464 137 137A 138 139 XploreDundee 14thAugust2016 final.pdf
1/1/2017 6:25 PM 502782 137 137A Xplore Dundee 15th August 2016.pdf
6/15/2017 4:53 AM 493185 137 138 139 both operators 5th June 2017.pdf
1/1/2017 6:25 PM 846353 138 139 Xplore Dundee 15th August 2016.pdf
2/21/2017 6:56 AM 385299 140 A 141 035 Travel Wishart TeeJay update Feb 2017.pdf
2/21/2017 6:56 AM 238645 140 B Summary Revised Oct 2016 updated Feb 2017.pdf
1/1/2017 6:25 PM 80406 150 B012 B019 Shorts Glenesk 1st June 2015.pdf
1/1/2017 6:25 PM 264920 155 Dochertys 26th January 2015.pdf
1/1/2017 6:26 PM 3779654 198 199 GF1 MDseries Xplore Dundee January 2017.pdf
1/1/2017 6:25 PM 522274 201 Stagecoach 15th August 2016.pdf
2/21/2017 6:56 AM 132475 202 January 2017.pdf
1/1/2017 6:26 PM 414208 204 Stagecoach 14th August 2016.pdf
1/1/2017 6:26 PM 433886 206 Stagecoach 14th August 2016.pdf
2/21/2017 7:03 AM 10148187 222 onwards Fisher Tours Scottish Express Spring Summer 2017 Mono.pdf
2/21/2017 7:00 AM 21310825 222 onwards Fisher Tours Scottish Express Spring Summer 2017.pdf
1/1/2017 6:27 PM 362753 236 Moffat and Williamson 14th August 2016.pdf
1/1/2017 6:27 PM 508238 301 Stagecoach 30th June 2014.pdf
6/15/2017 4:53 AM 991090 301 Stagecoach Perth Broxden Park and Ride 24th April 2017.pdf
1/1/2017 6:27 PM 300489 320 JP Coaches 24th April 2015.pdf
6/15/2017 8:33 AM 135790 330 1PP MONO a5.pdf
1/1/2017 6:27 PM 241488 331 Stagecoach 22nd August 2014.pdf
1/1/2017 6:27 PM 190363 501 Stagecoach Summer 2016.pdf
1/1/2017 6:28 PM 1340196 538 National Express Jan 16.pdf
1/1/2017 6:28 PM 2557762 588 590 592 National Express January 2016.pdf
1/1/2017 6:28 PM 75355 601 603 Dochertys Sweenys 13th August 2012.pdf
1/1/2017 6:28 PM 71549 604 Sweenys 18th August 2015.pdf
1/1/2017 6:28 PM 41551 613 618 Dochertys 13th August 2012.pdf
1/1/2017 6:28 PM 47570 624 Hamish Gordon 19th August 2014.pdf
1/1/2017 6:28 PM 42887 862 Stagecoach 15th August 2016.pdf
1/1/2017 6:28 PM 362724 885 892 Broons Stagecoach Oct 15 and Jan 14.pdf
7/5/2017 11:17 AM 268113 890 896 DMC August 2012.pdf
1/1/2017 6:28 PM 57498 890 896 Dochertys 13th August 2012.pdf
1/1/2017 6:28 PM 427419 893 895 Caber Dochertys Aug 12 Aug 15.pdf
1/1/2017 6:28 PM 149093 A003 Fishers Tours 6th February 2012.pdf
1/1/2017 6:28 PM 328982 A006 JP 3rd December 2015.pdf
1/1/2017 6:29 PM 392318 A007 JP 18th August 2015.pdf
1/1/2017 6:29 PM 176169 A012 Rowan Travel 18th August 2014.pdf
1/1/2017 6:29 PM 263901 A013 JP 19th November 2013.pdf
1/1/2017 6:29 PM 633760 A015 A017 Fishers Tours 18th August 2015.pdf
1/1/2017 6:29 PM 262258 A021 JP 16th February 2015.pdf
1/1/2017 6:29 PM 218284 A030 Fishers 18th August 2015.pdf
1/1/2017 6:29 PM 261622 A032 JP 9th December 2016.pdf
1/1/2017 6:29 PM 219077 A033 JP 20th November 2014.pdf
1/1/2017 6:29 PM 248424 A034 A035 Fishers Tours 18th August 2015.pdf
1/1/2017 6:29 PM 600019 A037 A038 A039 A040 A041 A042 A043 Fishers Tours 18th August 2015.pdf
1/1/2017 6:29 PM 449049 A2B K 17th August 2015.pdf
1/1/2017 6:29 PM 432678 A2B M 17th August 2015.pdf
1/1/2017 6:29 PM 703974 AS1 AS2 AS3 AS4 reprinted Septembe 2016.pdf
1/1/2017 6:29 PM 293143 B003 Glenesk 16th August 2011.pdf
1/1/2017 6:29 PM 242640 B004 M W Nicoll 31st August 2015.pdf
1/1/2017 6:29 PM 255932 B005 M W Nicoll 22nd August 2011.pdf
1/1/2017 6:29 PM 302857 B011 Glenesk 16th August 2011.pdf
1/1/2017 6:30 PM 269019 B012 Glenesk 17th October 2011.pdf
1/1/2017 6:30 PM 182825 B014 M W Nicoll 20th October 2014.pdf
1/1/2017 6:30 PM 222160 B015 Wishart 8th July 2013.pdf
1/1/2017 6:30 PM 307486 B017 TeeJay 16th August 2011.pdf
1/1/2017 6:30 PM 388309 B019 Glenesk 18th October 2011.pdf
1/1/2017 6:30 PM 267760 B022 Glenesk 24th October 2014.pdf
1/1/2017 6:30 PM 217712 B023 Glenesk 13th August 2014.pdf
7/5/2017 11:17 AM 132566 BASIN RAMBLER 2nd July 2017 MONO.pdf
1/1/2017 6:30 PM 200472 Basin Rambler.pdf
7/5/2017 11:18 AM 3611396 DRT Bal 6th March 2017.pdf
6/15/2017 4:54 AM 2718287 DRT Balq.pdf
2/21/2017 6:57 AM 2452398 DRT Balqhuidder includes Killin Strathfillan Strathaird Trossachs 1 59 C60 too from 30th January 2017.pdf
1/1/2017 6:33 PM 8732303 DRT1 complete guide mono.pdf
1/1/2017 6:31 PM 2753244 DRT2 October 2015 complete booklet MONO.pdf
7/5/2017 12:21 PM 520895 Dundeetravelpostersummer.jpg
1/1/2017 6:31 PM 236996 F002 Wishart 8th July 2013.pdf
1/1/2017 6:32 PM 272068 F005 JP 3rd September 2015.pdf
1/1/2017 6:32 PM 131438 F006 Wishart 13th August 2014.pdf
1/1/2017 6:32 PM 196902 F008 Wishart 8th July 2013.pdf
1/1/2017 6:32 PM 440114 F009 JP 13th August 2014.pdf
1/1/2017 6:32 PM 286022 F011 JP 9th September 2015.pdf
1/1/2017 6:32 PM 151144 F014 Fishers 18th August 2015.pdf
1/1/2017 6:32 PM 231319 F015 Wishart 8th July 2013.pdf
1/1/2017 6:32 PM 202522 F018 Wishart 8th July 2013.pdf
1/1/2017 6:32 PM 237141 G009 G010 G092 Citylink Gold February 2017.pdf
6/15/2017 8:41 AM 84023 G9 G10 G92 Gold 5th June 2017.pdf
1/1/2017 6:32 PM 124667 GTG Shopping Service.pdf
1/1/2017 6:33 PM 647371 GTG T Care Home Service.pdf
2/21/2017 8:03 AM 92413 GTG T Drop Off Service 7th February 2017.pdf
1/1/2017 6:33 PM 202938 K001 Shorts 13th August 2014.pdf
1/1/2017 6:33 PM 179976 K013 JP 7th January 2016.pdf
1/1/2017 6:33 PM 268033 K014 JP 9th December 2016.pdf
1/1/2017 6:33 PM 235148 K015 JP 9th December 2016.pdf
1/1/2017 6:33 PM 223321 K017 JP 13th August 2014.pdf
1/1/2017 6:33 PM 306625 K018 County 11th June 2014.pdf
1/1/2017 6:34 PM 308707 K019 JP 9th December 2016.pdf
1/1/2017 6:34 PM 239026 K020 JP 13th August 2014.pdf
1/1/2017 6:34 PM 396113 K022 Rowan 18th August 2014.pdf
1/1/2017 6:34 PM 11155 K023 JP 13th August 2014.pdf
1/1/2017 6:34 PM 12074 K025 JP 14th August 2012.pdf
1/1/2017 6:34 PM 207719 K026 Stagecoach 4th January 2016.pdf
1/1/2017 6:34 PM 329555 K028 JP 9th December 2016.pdf
1/1/2017 6:34 PM 11313 K029 Rowan 28th August 2015.pdf
1/1/2017 6:34 PM 174117 M009A SUMMARY Citylink services at Forfar October 2016.pdf
6/15/2017 4:54 AM 3824699 M009B SUMMARY Citylink A-E 5th June 2017pdf.pdf
1/1/2017 6:35 PM 2945829 M009B SUMMARY Citylink A-E.pdf
6/15/2017 4:55 AM 3159816 M009C SUMMARY Citylink A-G 5th June 2017.pdf
1/1/2017 6:35 PM 2707633 M009C SUMMARY Citylink A-G.pdf
6/15/2017 4:54 AM 144202 M009D SUMMARY Citylink I-E 5th June 2017.pdf
1/1/2017 6:35 PM 109886 M009D SUMMARY Citylink I-E.pdf
6/15/2017 4:54 AM 142813 M009E SUMMARY Citylink I-G 5th June 2017.pdf
1/1/2017 6:35 PM 99303 M009E SUMMARY Citylink I-G.pdf
1/1/2017 6:35 PM 1409390 M011 Megabus 3rd October 2016.pdf
1/1/2017 6:35 PM 517178 R001 R002 ROBE 2016 Season.pdf
1/1/2017 6:35 PM 69887 S005 Smith and Sons 7th July 2014.pdf
1/1/2017 6:35 PM 402421 S9 Megabus Gold Sleeper 3rd October 2016.pdf
7/5/2017 11:18 AM 79484 SES Fares 2017 COMBINED.pdf
6/15/2017 4:56 AM 4853348 X007 Stagecoach 3rd July 2017.pdf
2/21/2017 8:04 AM 4237680 X007 Stagecoach July 2016 reprinted Jan 17.pdf
6/15/2017 4:55 AM 2718182 X008 Stagecoach 3rd July 2017.pdf
6/15/2017 4:56 AM 3040488 X053 53 53B Stagecoach 5th June 2017.pdf
2/21/2017 8:04 AM 2950149 X053 Stagecoach 30th January 2017.pdf
6/15/2017 4:57 AM 5776908 X054 54 X059 Stagecoach 5th June 2017.pdf
1/1/2017 6:38 PM 5274481 X054 X059 Stagecoach 3rd January 2017.pdf
1/1/2017 6:38 PM 4090078 X055 X056 Stagecoach 3rd January 2017.pdf
6/15/2017 4:56 AM 1740769 X056 Stagecoach 5th June 201.pdf
7/5/2017 11:18 AM 31989 XD additional fares information 29th June 2017.pdf
1/1/2017 6:38 PM 126329 y888 PAGE FILLER DUNDEE.pdf
3/30/2017 1:05 PM 240229 ZZZ CC Closure April 2017.pdf
3/30/2017 1:05 PM 478849 ZZZ XD CC Closure April 2017.pdf